Change the Weather History Date:

Friday, October 12, 2012

  Actual Average (KBPI) Record (KBPI)
Temperature  
Mean Temperature 43 °F 40 °F  
Max Temperature 60 °F 57 °F 74 °F (1976)
Min Temperature 26 °F 23 °F 13 °F (2002)
Degree Days  
Heating Degree Days 22 25  
Month to date heating degree days 277  
Since 1 July heating degree days 1028  
Cooling Degree Days 0 0  
Month to date cooling degree days 0  
Year to date cooling degree days 35  
Moisture  
Dew Point 29 °F    
Average Humidity 61    
Maximum Humidity 93    
Minimum Humidity 29    
Precipitation  
Precipitation 0.00 in 0.03 in 0.20 in (2008)
Month to date precipitation 0.27  
Year to date precipitation 5.71  
Sea Level Pressure  
Sea Level Pressure 30.05 in    
Wind  
Wind Speed 4 mph (SSW)    
Max Wind Speed 15 mph    
Max Gust Speed 18 mph    
Visibility 10 miles    
Events      
T = Trace of Precipitation, MM = Missing Value Source: NWS Daily Summary

Daily Weather History Graph

Daily Weather History Graph

Search for Another Location

Airport or City:

Trip Planner

Search our weather history database for the weather conditions in past years. The results will help you decide how hot, cold, wet, or windy it might be!

Date:

Astronomy

Oct. 12, 2012 Rise Set
Actual Time 7:29 AM MDT 6:40 PM MDT
Civil Twilight 7:01 AM MDT 7:09 PM MDT
Nautical Twilight 6:28 AM MDT 7:41 PM MDT
Astronomical Twilight 5:55 AM MDT 8:14 PM MDT
Moon 4:12 AM MDT (10/12) 4:55 PM MDT (10/12)
Length of Visible Light 12h 07m
Length of Day
11h 11m
Waning Crescent, 10% of the Moon is Illuminated
Oct 12
Waning Crescent
Oct 15
New
Oct 21
First Quarter
Oct 29
Full
Nov 6
Last Quarter

Hourly Weather History & Observations

Time (MDT) Temp. Windchill Dew Point Humidity Pressure Visibility Wind Dir Wind Speed Gust Speed Precip Events Conditions
12:15 AM 39.2 °F - 26.6 °F 61% 30.11 in 10.0 mi Calm Calm - N/A   Clear
12:35 AM 37.4 °F 34.9 °F 24.8 °F 60% 30.11 in 10.0 mi WNW 3.5 mph - N/A   Clear
12:55 AM 35.6 °F 32.8 °F 24.8 °F 65% 30.11 in 10.0 mi WNW 3.5 mph - N/A   Clear
2:15 AM 32.0 °F - 24.8 °F 75% 30.11 in 10.0 mi Calm Calm - N/A   Mostly Cloudy
2:35 AM 32.0 °F - 24.8 °F 75% 30.11 in 10.0 mi Calm Calm - N/A   Mostly Cloudy
2:55 AM 33.8 °F - 24.8 °F 70% 30.11 in 10.0 mi Calm Calm - N/A   Mostly Cloudy
3:15 AM 32.0 °F - 23.0 °F 69% 30.10 in 10.0 mi Calm Calm - N/A   Scattered Clouds
3:35 AM 32.0 °F - 23.0 °F 69% 30.11 in 10.0 mi Calm Calm - N/A   Scattered Clouds
3:55 AM 32.0 °F 27.5 °F 23.0 °F 69% 30.11 in 10.0 mi WNW 4.6 mph - N/A   Mostly Cloudy
4:15 AM 30.2 °F 25.4 °F 24.8 °F 80% 30.11 in 10.0 mi NNW 4.6 mph - N/A   Mostly Cloudy
4:35 AM 30.2 °F 26.7 °F 23.0 °F 75% 30.09 in 10.0 mi North 3.5 mph - N/A   Mostly Cloudy
4:55 AM 30.2 °F 22.6 °F 23.0 °F 75% 30.10 in 10.0 mi West 8.1 mph - N/A   Scattered Clouds
5:15 AM 30.2 °F 23.4 °F 23.0 °F 75% 30.10 in 10.0 mi WNW 6.9 mph - N/A   Mostly Cloudy
5:35 AM 30.2 °F 26.7 °F 23.0 °F 75% 30.10 in 10.0 mi NW 3.5 mph - N/A   Mostly Cloudy
5:55 AM 30.2 °F 24.3 °F 23.0 °F 75% 30.10 in 10.0 mi NW 5.8 mph - N/A   Scattered Clouds
6:15 AM 28.4 °F 22.2 °F 23.0 °F 80% 30.09 in 10.0 mi WNW 5.8 mph - N/A   Scattered Clouds
6:35 AM 26.6 °F 19.1 °F 21.2 °F 80% 30.10 in 10.0 mi WNW 6.9 mph - N/A   Scattered Clouds
6:55 AM 28.4 °F 22.2 °F 23.0 °F 80% 30.10 in 10.0 mi WNW 5.8 mph - N/A   Clear
7:15 AM 28.4 °F 21.2 °F 23.0 °F 80% 30.10 in 10.0 mi West 6.9 mph - N/A   Mostly Cloudy
7:35 AM 28.4 °F 22.2 °F 23.0 °F 80% 30.11 in 10.0 mi West 5.8 mph - N/A   Scattered Clouds
7:55 AM 30.2 °F 24.3 °F 24.8 °F 80% 30.11 in 10.0 mi WNW 5.8 mph - N/A   Mostly Cloudy
8:15 AM 32.0 °F 24.8 °F 24.8 °F 75% 30.10 in 10.0 mi WNW 8.1 mph - N/A   Mostly Cloudy
8:55 AM 32.0 °F 27.5 °F 26.6 °F 80% 30.10 in 10.0 mi NW 4.6 mph - N/A   Clear
9:15 AM 35.6 °F 32.8 °F 26.6 °F 70% 30.09 in 10.0 mi WNW 3.5 mph - N/A   Mostly Cloudy
9:35 AM 42.8 °F 40.1 °F 28.4 °F 57% 30.08 in 10.0 mi NW 4.6 mph - N/A   Scattered Clouds
10:15 AM 48.2 °F - 30.2 °F 50% 30.08 in 10.0 mi Calm Calm - N/A   Clear
10:35 AM 55.4 °F - 28.4 °F 36% 30.08 in 10.0 mi ESE 9.2 mph - N/A   Mostly Cloudy
10:55 AM 53.6 °F - 28.4 °F 38% 30.08 in 10.0 mi ESE 4.6 mph - N/A   Scattered Clouds
11:15 AM 55.4 °F - 28.4 °F 36% 30.07 in 10.0 mi SE 5.8 mph - N/A   Clear
11:35 AM 57.2 °F - 28.4 °F 33% 30.07 in 10.0 mi SSE 5.8 mph - N/A   Scattered Clouds
11:55 AM 59.0 °F - 30.2 °F 34% 30.06 in 10.0 mi SSE 4.6 mph - N/A   Scattered Clouds
12:35 PM 59.0 °F - 28.4 °F 31% 30.04 in 10.0 mi SSW 4.6 mph - N/A   Scattered Clouds
1:35 PM 60.8 °F - 28.4 °F 29% 30.00 in 10.0 mi Calm Calm - N/A   Clear
2:15 PM 60.8 °F - 28.4 °F 29% 29.99 in 10.0 mi South 4.6 mph - N/A   Clear
2:55 PM 60.8 °F - 30.2 °F 31% 29.97 in 10.0 mi South 3.5 mph - N/A   Scattered Clouds
3:15 PM 60.8 °F - 32.0 °F 34% 29.97 in 10.0 mi SSE 11.5 mph 16.1 mph N/A   Scattered Clouds
3:35 PM 60.8 °F - 32.0 °F 34% 29.97 in 10.0 mi South 13.8 mph - N/A   Scattered Clouds
3:55 PM 60.8 °F - 32.0 °F 34% 29.97 in 10.0 mi SSE 10.4 mph - N/A   Clear
4:15 PM 59.0 °F - 32.0 °F 36% 29.97 in 10.0 mi SSE 13.8 mph 18.4 mph N/A   Clear
4:35 PM 59.0 °F - 32.0 °F 36% 29.97 in 10.0 mi SSE 13.8 mph 17.3 mph N/A   Clear
5:15 PM 59.0 °F - 32.0 °F 36% 29.97 in 10.0 mi SSE 13.8 mph - N/A   Clear
5:55 PM 57.2 °F - 33.8 °F 41% 29.97 in 10.0 mi SSE 8.1 mph - N/A   Clear
6:15 PM 55.4 °F - 33.8 °F 44% 29.97 in 10.0 mi SSE 5.8 mph - N/A   Clear
6:35 PM 53.6 °F - 37.4 °F 54% 29.98 in 10.0 mi South 12.7 mph 18.4 mph N/A   Mostly Cloudy
7:15 PM 51.8 °F - 37.4 °F 58% 30.00 in 10.0 mi South 8.1 mph - N/A   Overcast
7:35 PM 50.0 °F - 35.6 °F 58% 30.00 in 10.0 mi South 11.5 mph 16.1 mph N/A   Overcast
7:55 PM 50.0 °F - 37.4 °F 62% 30.01 in 10.0 mi South 15.0 mph 18.4 mph N/A   Overcast
8:15 PM 48.2 °F - 37.4 °F 66% 30.02 in 10.0 mi SE 4.6 mph - N/A   Overcast
8:35 PM 46.4 °F 43.5 °F 37.4 °F 71% 30.02 in 10.0 mi SE 5.8 mph - N/A   Mostly Cloudy
8:55 PM 46.4 °F 44.3 °F 37.4 °F 71% 30.03 in 10.0 mi East 4.6 mph - N/A   Scattered Clouds
9:15 PM 44.6 °F 42.2 °F 35.6 °F 71% 30.03 in 10.0 mi East 4.6 mph - N/A   Scattered Clouds
9:35 PM 42.8 °F 40.1 °F 35.6 °F 76% 30.03 in 10.0 mi East 4.6 mph - N/A   Mostly Cloudy
10:55 PM 42.8 °F - 35.6 °F 76% 30.03 in 10.0 mi Calm Calm - N/A   Overcast
11:15 PM 41.0 °F - 33.8 °F 76% 30.03 in 10.0 mi Calm Calm - N/A   Scattered Clouds
11:35 PM 37.4 °F - 33.8 °F 87% 30.03 in 10.0 mi Calm Calm - N/A   Clear
11:55 PM 33.8 °F 30.8 °F 32.0 °F 93% 30.03 in 10.0 mi WNW 3.5 mph - N/A   Mostly Cloudy